IT9NKT-WX Weather Reports


Display with metric or nautical units.
time (UTC)temp
F
wind
direction
speed
MPH
gust
MPH
rain 1hr
in
rain 24hr
in
rain mn
in
humidity
%
barometer
mb
20260508211504 65 190 0.0 1.0 0.00 0.00 0.00 82 1015.4
20260508211004 65 0 0.0 0.0 0.00 0.00 0.00 81 1015.4
20260508210503 65 180 0.0 0.0 0.00 0.00 0.00 81 1015.5
20260508210004 65 158 0.0 1.0 0.00 0.00 0.00 81 1015.3
20260508205504 65 110 0.0 1.0 0.00 0.00 0.00 81 1015.5
20260508205213 65 0 0.0 0.0 0.00 0.00 0.00 81 1015.4
20260508204503 66 195 0.0 1.0 0.00 0.00 0.00 80 1015.4
20260508204003 66 0 0.0 0.0 0.00 0.00 0.00 79 1015.3
20260508203503 66 0 0.0 0.0 0.00 0.00 0.00 80 1015.4
20260508203215 66 0 0.0 0.0 0.00 0.00 0.00 79 1015.3
20260508202503 66 0 0.0 0.0 0.00 0.00 0.00 79 1015.6
20260508202216 66 0 0.0 0.0 0.00 0.00 0.00 79 1015.5
20260508201714 66 0 0.0 0.0 0.00 0.00 0.00 79 1015.4
20260508201004 66 148 0.0 2.0 0.00 0.00 0.00 79 1015.4
20260508200504 66 145 0.0 2.0 0.00 0.00 0.00 79 1015.4
20260508200004 66 137 0.0 2.0 0.00 0.00 0.00 79 1015.3
20260508195503 66 134 1.0 2.0 0.00 0.00 0.00 79 1015.3
20260508195004 66 137 1.0 2.0 0.00 0.00 0.00 78 1015.2
20260508194503 66 122 1.0 3.0 0.00 0.00 0.00 78 1015.0
20260508194215 66 106 1.0 6.0 0.00 0.00 0.00 78 1015.3
20260508193718 66 94 1.0 6.0 0.00 0.00 0.00 77 1015.0
20260508193004 67 90 2.0 7.0 0.00 0.00 0.00 77 1015.0
20260508192503 67 89 2.0 7.0 0.00 0.00 0.00 77 1015.0
20260508192004 67 75 1.0 4.0 0.00 0.00 0.00 76 1014.9
20260508191504 67 67 1.0 4.0 0.00 0.00 0.00 76 1015.1
20260508191004 67 73 2.0 5.0 0.00 0.00 0.00 76 1014.9
20260508190503 67 84 2.0 7.0 0.00 0.00 0.00 78 1014.9
20260508190003 67 90 2.0 7.0 0.00 0.00 0.00 79 1014.6
20260508185504 67 92 1.0 4.0 0.00 0.00 0.00 81 1014.4
20260508185004 67 87 1.0 5.0 0.00 0.00 0.00 81 1014.6
20260508184504 67 87 1.0 6.0 0.00 0.00 0.00 81 1014.5
20260508184004 67 91 1.0 6.0 0.00 0.00 0.00 81 1014.2
20260508183504 67 97 1.0 4.0 0.00 0.00 0.00 81 1014.2
20260508183004 67 103 0.0 2.0 0.00 0.00 0.00 82 1014.2
20260508182503 67 101 0.0 2.0 0.00 0.00 0.00 82 1014.0
20260508182004 67 105 1.0 2.0 0.00 0.00 0.00 83 1014.0
20260508181503 67 107 1.0 3.0 0.00 0.00 0.00 83 1014.0
20260508181003 67 112 1.0 4.0 0.00 0.00 0.00 83 1013.8
20260508180716 67 124 1.0 4.0 0.00 0.00 0.00 83 1013.8
20260508180003 67 104 1.0 4.0 0.00 0.00 0.00 83 1013.7
20260508175504 67 100 1.0 4.0 0.00 0.00 0.00 82 1013.7
20260508175215 67 95 1.0 4.0 0.00 0.00 0.00 83 1013.7
20260508174713 67 99 1.0 3.0 0.00 0.00 0.00 83 1013.7
20260508174003 67 117 1.0 4.0 0.00 0.00 0.00 84 1013.8
20260508173503 67 104 1.0 3.0 0.00 0.00 0.00 85 1013.9
20260508173004 67 119 1.0 3.0 0.00 0.00 0.00 85 1013.8
20260508172504 67 131 1.0 4.0 0.00 0.00 0.00 84 1013.6
20260508172004 67 113 1.0 4.0 0.00 0.00 0.00 84 1013.4
20260508171503 68 97 1.0 4.0 0.00 0.00 0.00 83 1013.5
20260508171004 68 105 1.0 4.0 0.00 0.00 0.00 82 1013.4
20260508170503 68 118 2.0 7.0 0.00 0.00 0.00 81 1013.4
20260508170003 68 121 2.0 7.0 0.00 0.00 0.00 81 1013.5
20260508165504 68 114 2.0 7.0 0.00 0.00 0.00 80 1013.3
20260508165004 68 104 2.0 7.0 0.00 0.00 0.00 79 1013.4
20260508164504 68 118 2.0 4.0 0.00 0.00 0.00 79 1013.2
20260508164217 68 123 2.0 4.0 0.00 0.00 0.00 79 1013.3
20260508163715 68 129 2.0 6.0 0.00 0.00 0.00 80 1013.3
20260508163003 69 134 2.0 8.0 0.00 0.00 0.00 80 1013.1
20260508162504 69 109 2.0 8.0 0.00 0.00 0.00 79 1013.3
20260508162003 70 113 2.0 6.0 0.00 0.00 0.00 76 1013.1
20260508161504 70 124 2.0 5.0 0.00 0.00 0.00 72 1013.0
20260508161003 71 110 2.0 5.0 0.00 0.00 0.00 69 1013.2
20260508160504 71 104 2.0 9.0 0.00 0.00 0.00 67 1013.1
20260508160004 72 102 2.0 9.0 0.00 0.00 0.00 65 1013.2
20260508155503 72 115 2.0 6.0 0.00 0.00 0.00 67 1013.1
20260508155003 72 115 2.0 8.0 0.00 0.00 0.00 68 1013.1
20260508154714 72 117 2.0 8.0 0.00 0.00 0.00 68 1013.0
20260508154004 72 110 2.0 6.0 0.00 0.00 0.00 68 1012.9
20260508153504 72 95 2.0 7.0 0.00 0.00 0.00 68 1012.9
20260508153003 72 95 3.0 7.0 0.00 0.00 0.00 68 1012.9
20260508152504 72 100 3.0 9.0 0.00 0.00 0.00 67 1013.0
20260508152004 72 101 2.0 9.0 0.00 0.00 0.00 67 1012.9
20260508151503 72 82 2.0 7.0 0.00 0.00 0.00 67 1012.9
20260508151215 72 92 2.0 7.0 0.00 0.00 0.00 66 1012.8
20260508150503 72 118 2.0 8.0 0.00 0.00 0.00 67 1012.5
20260508150005 72 125 2.0 8.0 0.00 0.00 0.00 66 1012.8
20260508145503 72 106 2.0 7.0 0.00 0.00 0.00 67 1012.8
20260508145004 72 110 2.0 5.0 0.00 0.00 0.00 67 1012.7
20260508144504 72 108 3.0 7.0 0.00 0.00 0.00 67 1012.6
20260508144004 72 102 3.0 9.0 0.00 0.00 0.00 68 1012.7
20260508143504 72 120 3.0 9.0 0.00 0.00 0.00 68 1012.7
20260508143004 72 117 3.0 8.0 0.00 0.00 0.00 68 1012.7
20260508142717 73 99 3.0 8.0 0.00 0.00 0.00 69 1012.6
20260508142003 73 78 3.0 11.0 0.00 0.00 0.00 63 1012.6
20260508141504 74 91 3.0 11.0 0.00 0.00 0.00 63 1012.6
20260508141004 73 94 3.0 9.0 0.00 0.00 0.00 63 1012.5
20260508140714 73 99 3.0 9.0 0.00 0.00 0.00 64 1012.7
20260508140004 74 100 3.0 7.0 0.00 0.00 0.00 61 1012.5
20260508135504 73 107 3.0 10.0 0.00 0.00 0.00 63 1012.5
20260508135003 74 106 3.0 10.0 0.00 0.00 0.00 63 1012.4
20260508134503 74 109 2.0 6.0 0.00 0.00 0.00 64 1012.6
20260508134004 74 129 3.0 11.0 0.00 0.00 0.00 64 1012.7
20260508133504 73 128 4.0 11.0 0.00 0.00 0.00 65 1012.6
20260508133003 73 120 3.0 9.0 0.00 0.00 0.00 66 1012.6
20260508132503 73 106 2.0 9.0 0.00 0.00 0.00 66 1012.5
20260508132215 73 101 2.0 9.0 0.00 0.00 0.00 66 1012.4
20260508131503 73 91 2.0 8.0 0.00 0.00 0.00 65 1012.6
20260508131004 73 101 2.0 7.0 0.00 0.00 0.00 66 1012.4
20260508130504 73 115 3.0 9.0 0.00 0.00 0.00 65 1012.6
20260508130004 74 98 2.0 9.0 0.00 0.00 0.00 64 1012.5
20260508125504 73 116 2.0 9.0 0.00 0.00 0.00 66 1012.5
20260508125003 73 139 3.0 9.0 0.00 0.00 0.00 66 1012.6
20260508124504 74 116 2.0 7.0 0.00 0.00 0.00 66 1012.4
20260508124003 74 111 2.0 8.0 0.00 0.00 0.00 65 1012.4
20260508123717 74 109 2.0 8.0 0.00 0.00 0.00 65 1012.4
20260508123004 74 77 2.0 7.0 0.00 0.00 0.00 66 1012.5
20260508122713 74 75 2.0 7.0 0.00 0.00 0.00 65 1012.5
20260508122003 74 121 2.0 6.0 0.00 0.00 0.00 64 1012.6
20260508121504 73 117 3.0 8.0 0.00 0.00 0.00 66 1012.3
20260508121217 72 102 2.0 8.0 0.00 0.00 0.00 68 1012.7
20260508120504 73 97 2.0 8.0 0.00 0.00 0.00 65 1012.4
20260508120004 72 113 3.0 8.0 0.00 0.00 0.00 68 1012.8
20260508115504 72 100 2.0 7.0 0.00 0.00 0.00 68 1012.7
20260508115003 72 76 2.0 8.0 0.00 0.00 0.00 69 1012.9
20260508114504 72 72 2.0 8.0 0.00 0.00 0.00 68 1012.7
20260508114004 72 101 2.0 7.0 0.00 0.00 0.00 68 1012.6
20260508113503 74 122 2.0 7.0 0.00 0.00 0.00 65 1012.6
20260508113005 73 115 2.0 8.0 0.00 0.00 0.00 67 1012.6
20260508112504 73 123 3.0 8.0 0.00 0.00 0.00 66 1012.5
20260508112003 73 133 3.0 8.0 0.00 0.00 0.00 66 1012.6
20260508111503 72 133 3.0 8.0 0.00 0.00 0.00 66 1012.8
20260508111004 74 117 2.0 7.0 0.00 0.00 0.00 65 1012.4
20260508110503 73 134 2.0 7.0 0.00 0.00 0.00 66 1012.5
20260508110213 74 132 2.0 7.0 0.00 0.00 0.00 65 1012.7
20260508105717 73 99 2.0 6.0 0.00 0.00 0.00 66 1012.4
20260508105004 72 107 2.0 8.0 0.00 0.00 0.00 67 1012.5
20260508104504 72 104 2.0 7.0 0.00 0.00 0.00 65 1012.7
20260508104003 74 123 3.0 10.0 0.00 0.00 0.00 65 1012.5
20260508103504 73 133 3.0 10.0 0.00 0.00 0.00 66 1012.3
20260508103217 74 129 3.0 10.0 0.00 0.00 0.00 66 1012.5
20260508102503 74 103 2.0 7.0 0.00 0.00 0.00 65 1012.5
20260508102004 74 109 3.0 7.0 0.00 0.00 0.00 65 1012.4
20260508101503 73 102 3.0 9.0 0.00 0.00 0.00 66 1012.3
20260508101004 73 88 2.0 9.0 0.00 0.00 0.00 65 1012.6
20260508100716 73 93 2.0 6.0 0.00 0.00 0.00 66 1012.5
20260508100003 73 116 3.0 10.0 0.00 0.00 0.00 65 1012.2
20260508095717 73 110 3.0 10.0 0.00 0.00 0.00 67 1012.4
20260508095004 72 101 3.0 9.0 0.00 0.00 0.00 67 1012.2
20260508094503 73 104 3.0 8.0 0.00 0.00 0.00 67 1012.3
20260508094216 74 101 2.0 8.0 0.00 0.00 0.00 64 1012.4
20260508093504 73 64 2.0 7.0 0.00 0.00 0.00 68 1012.1
20260508093217 72 62 2.0 7.0 0.00 0.00 0.00 67 1012.3
20260508092504 73 86 1.0 3.0 0.00 0.00 0.00 66 1012.3
20260508092003 73 75 2.0 5.0 0.00 0.00 0.00 66 1012.3
20260508091504 72 72 1.0 7.0 0.00 0.00 0.00 66 1012.3
20260508091214 72 94 1.0 7.0 0.00 0.00 0.00 66 1012.4
20260508090503 72 96 1.0 4.0 0.00 0.00 0.00 67 1012.5
20260508090004 71 95 1.0 7.0 0.00 0.00 0.00 68 1012.7
20260508085504 73 80 1.0 7.0 0.00 0.00 0.00 65 1012.5
20260508085003 73 94 1.0 3.0 0.00 0.00 0.00 68 1012.5
20260508084504 78 172 1.0 4.0 0.00 0.00 0.00 58 1012.3
20260508084004 78 187 1.0 4.0 0.00 0.00 0.00 53 1012.2
20260508083504 78 162 1.0 2.0 0.00 0.00 0.00 54 1011.9
20260508083004 78 194 1.0 6.0 0.00 0.00 0.00 54 1012.0
20260508082716 77 197 1.0 6.0 0.00 0.00 0.00 56 1012.1
20260508082003 78 187 1.0 3.0 0.00 0.00 0.00 55 1012.0
20260508081503 77 186 2.0 6.0 0.00 0.00 0.00 56 1012.0
20260508081003 76 186 2.0 6.0 0.00 0.00 0.00 57 1012.1
20260508080503 76 179 2.0 4.0 0.00 0.00 0.00 58 1012.1
20260508080003 76 177 1.0 4.0 0.00 0.00 0.00 58 1012.0
20260508075504 76 184 2.0 4.0 0.00 0.00 0.00 59 1012.2
20260508075216 75 188 2.0 6.0 0.00 0.00 0.00 61 1012.0
20260508074504 75 174 2.0 6.0 0.00 0.00 0.00 61 1012.3
20260508074004 75 165 1.0 4.0 0.00 0.00 0.00 60 1012.2
20260508073715 75 170 1.0 4.0 0.00 0.00 0.00 61 1012.2
20260508073003 74 182 1.0 4.0 0.00 0.00 0.00 61 1012.2
20260508072503 74 181 1.0 4.0 0.00 0.00 0.00 62 1012.2
20260508072004 74 175 1.0 2.0 0.00 0.00 0.00 61 1012.3
20260508071504 74 176 1.0 4.0 0.00 0.00 0.00 61 1012.1
20260508071215 74 175 1.0 4.0 0.00 0.00 0.00 62 1012.3
20260508070504 73 193 1.0 4.0 0.00 0.00 0.00 62 1012.3
20260508070003 72 195 1.0 4.0 0.00 0.00 0.00 65 1012.0
20260508065504 72 188 1.0 3.0 0.00 0.00 0.00 66 1012.5
20260508065217 73 183 1.0 3.0 0.00 0.00 0.00 65 1012.1
20260508064715 72 185 1.0 2.0 0.00 0.00 0.00 67 1012.4
20260508064003 71 195 1.0 4.0 0.00 0.00 0.00 69 1012.4
20260508063503 71 182 1.0 2.0 0.00 0.00 0.00 69 1012.3
20260508063004 71 169 1.0 2.0 0.00 0.00 0.00 68 1012.3
20260508062504 71 157 1.0 2.0 0.00 0.00 0.00 69 1012.2
20260508062003 71 154 0.0 1.0 0.00 0.00 0.00 69 1012.3
20260508061504 71 168 0.0 2.0 0.00 0.00 0.00 71 1012.2
20260508061003 71 187 0.0 2.0 0.00 0.00 0.00 71 1012.1
20260508060504 70 172 0.0 2.0 0.00 0.00 0.00 72 1012.3
20260508060004 70 159 1.0 2.0 0.00 0.00 0.00 73 1012.3
20260508055503 70 161 0.0 1.0 0.00 0.00 0.00 74 1012.3
20260508055213 69 148 0.0 1.0 0.00 0.00 0.00 74 1012.3
20260508054503 68 141 1.0 2.0 0.00 0.00 0.00 76 1012.3
20260508054003 68 123 0.0 2.0 0.00 0.00 0.00 77 1012.3
20260508053503 67 153 0.0 1.0 0.00 0.00 0.00 79 1012.1
20260508053003 67 161 0.0 2.0 0.00 0.00 0.00 80 1012.3
20260508052503 66 162 0.0 2.0 0.00 0.00 0.00 81 1012.1
20260508052003 65 16 0.0 2.0 0.00 0.00 0.00 82 1012.0
20260508051503 65 94 0.0 2.0 0.00 0.00 0.00 83 1012.4
20260508051004 65 168 0.0 1.0 0.00 0.00 0.00 84 1012.2
20260508050714 64 171 0.0 1.0 0.00 0.00 0.00 85 1012.2
20260508050003 63 160 0.0 1.0 0.00 0.00 0.00 86 1012.1
20260508045503 63 269 0.0 2.0 0.00 0.00 0.00 86 1012.1
20260508045004 63 271 0.0 2.0 0.00 0.00 0.00 87 1011.9
20260508044503 62 177 0.0 1.0 0.00 0.00 0.00 87 1011.8
20260508044003 62 179 0.0 1.0 0.00 0.00 0.00 88 1011.8
20260508043504 62 169 0.0 1.0 0.00 0.00 0.00 88 1011.7
20260508043004 61 168 0.0 2.0 0.00 0.00 0.00 88 1012.0
20260508042503 61 172 0.0 2.0 0.00 0.00 0.00 88 1012.0
20260508042003 61 175 0.0 1.0 0.00 0.00 0.00 88 1011.9
20260508041504 61 177 0.0 1.0 0.00 0.00 0.00 88 1011.8
20260508041217 61 182 0.0 1.0 0.00 0.00 0.00 88 1011.8
20260508040503 61 184 0.0 1.0 0.00 0.00 0.00 88 1011.6
20260508040003 61 0 0.0 0.0 0.00 0.00 0.00 88 1011.7
20260508035504 61 192 0.0 2.0 0.00 0.00 0.00 88 1011.7
20260508035004 61 192 0.0 2.0 0.00 0.00 0.00 88 1011.5
20260508034504 61 187 0.0 1.0 0.00 0.00 0.00 88 1011.3
20260508034003 61 168 0.0 0.0 0.00 0.00 0.00 88 1011.3
20260508033504 61 175 0.0 1.0 0.00 0.00 0.00 88 1011.4
20260508033216 61 176 0.0 1.0 0.00 0.00 0.00 88 1011.3
20260508032714 61 179 0.0 0.0 0.00 0.00 0.00 88 1011.3
20260508032003 61 316 0.0 1.0 0.00 0.00 0.00 88 1011.2
20260508031715 61 312 0.0 1.0 0.00 0.00 0.00 88 1011.0
20260508031003 61 189 0.0 1.0 0.00 0.00 0.00 88 1010.9
20260508030504 61 0 0.0 0.0 0.00 0.00 0.00 87 1011.0
20260508030004 62 0 0.0 0.0 0.00 0.00 0.00 87 1010.9
20260508025717 62 0 0.0 0.0 0.00 0.00 0.00 87 1011.0
20260508025003 62 0 0.0 0.0 0.00 0.00 0.00 87 1011.2
20260508024713 62 191 0.0 1.0 0.00 0.00 0.00 87 1011.1
20260508024003 62 191 0.0 1.0 0.00 0.00 0.00 87 1011.1
20260508023503 62 0 0.0 0.0 0.00 0.00 0.00 87 1011.3
20260508023004 62 0 0.0 0.0 0.00 0.00 0.00 87 1011.3
20260508022714 62 0 0.0 0.0 0.00 0.00 0.00 87 1011.0
20260508022004 62 0 0.0 0.0 0.00 0.00 0.00 87 1011.1
20260508021715 62 0 0.0 0.0 0.00 0.00 0.00 87 1011.0
20260508021004 62 202 0.0 1.0 0.00 0.00 0.00 87 1011.0
20260508020503 62 206 0.0 1.0 0.00 0.00 0.00 87 1011.0
20260508020004 62 202 0.0 1.0 0.00 0.00 0.00 87 1010.9
20260508015503 62 194 0.0 1.0 0.00 0.00 0.00 87 1010.8
20260508015004 62 174 0.0 1.0 0.00 0.00 0.00 87 1010.6
20260508014504 62 197 0.0 1.0 0.00 0.00 0.00 86 1010.7
20260508014004 62 194 0.0 1.0 0.00 0.00 0.00 86 1010.7
20260508013714 63 194 0.0 1.0 0.00 0.00 0.00 86 1010.5
20260508013003 63 148 0.0 2.0 0.00 0.00 0.00 86 1010.4
20260508012504 63 137 0.0 2.0 0.00 0.00 0.00 86 1010.6
20260508012003 63 119 0.0 1.0 0.00 0.00 0.00 85 1010.6
20260508011503 63 22 0.0 3.0 0.00 0.00 0.00 84 1010.6
20260508011003 63 351 0.0 3.0 0.00 0.00 0.00 83 1010.6
20260508010503 63 1 1.0 4.0 0.00 0.00 0.00 83 1010.7
20260508010004 63 11 1.0 4.0 0.00 0.00 0.00 83 1010.8
20260508005713 63 13 1.0 4.0 0.00 0.00 0.00 83 1010.9
20260508005004 63 348 0.0 2.0 0.00 0.00 0.00 83 1011.0
20260508004504 63 188 0.0 1.0 0.00 0.00 0.00 83 1011.2
20260508004003 63 186 0.0 1.0 0.00 0.00 0.00 82 1011.3
20260508003504 64 192 0.0 1.0 0.00 0.00 0.00 82 1011.3
20260508003003 64 239 1.0 6.0 0.00 0.00 0.00 82 1011.1
20260508002503 63 262 1.0 6.0 0.00 0.00 0.00 83 1011.1
20260508002003 63 311 1.0 3.0 0.00 0.00 0.00 83 1011.5
20260508001503 63 336 1.0 3.0 0.00 0.00 0.00 83 1011.5
20260508001003 63 316 0.0 2.0 0.00 0.00 0.00 83 1011.7
20260508000504 63 133 0.0 1.0 0.00 0.00 0.00 82 1011.9
20260508000003 63 167 0.0 0.0 0.00 0.00 0.00 82 1012.1
20260507235504 63 177 0.0 1.0 0.00 0.00 0.00 82 1012.0
20260507235003 64 172 0.0 2.0 0.00 0.00 0.00 82 1012.0
20260507234504 64 163 0.0 2.0 0.00 0.00 0.00 82 1012.2
20260507234004 64 160 0.0 1.0 0.00 0.00 0.00 82 1012.1
20260507233503 64 176 0.0 1.0 0.00 0.00 0.00 82 1012.4
20260507233004 64 181 0.0 1.0 0.00 0.00 0.00 82 1012.1
20260507232504 64 209 0.0 3.0 0.00 0.00 0.00 83 1012.2
20260507232214 64 339 0.0 3.0 0.00 0.00 0.00 83 1012.2
20260507231717 64 6 0.0 3.0 0.00 0.00 0.00 83 1012.2
20260507230504 64 280 0.0 1.0 0.00 0.00 0.00 84 1012.6
20260507230003 64 208 0.0 1.0 0.00 0.00 0.00 84 1012.9
20260507225503 64 299 0.0 3.0 0.00 0.00 0.00 85 1013.4
20260507225213 64 322 0.0 3.0 0.00 0.00 0.00 85 1013.0
20260507224716 64 292 0.0 3.0 0.00 0.00 0.00 85 1012.8
20260507224004 64 0 0.0 0.0 0.00 0.00 0.00 85 1012.9
20260507223503 64 200 0.0 1.0 0.00 0.00 0.00 84 1013.2
20260507223003 64 198 1.0 1.0 0.00 0.00 0.00 84 1013.0
20260507222503 64 197 1.0 2.0 0.00 0.00 0.00 84 1012.9
20260507222004 64 202 0.0 2.0 0.00 0.00 0.00 84 1012.6
20260507221503 64 290 0.0 2.0 0.00 0.00 0.00 84 1012.6
20260507221217 64 2 1.0 7.0 0.00 0.00 0.00 84 1012.4
20260507220714 64 18 1.0 7.0 0.00 0.00 0.00 83 1012.3
20260507220007 64 42 1.0 2.0 0.00 0.00 0.00 83 1011.7
20260507215503 64 24 1.0 6.0 0.00 0.00 0.00 83 1012.0
20260507215213 64 20 1.0 6.0 0.00 0.00 0.00 83 1012.1
20260507214504 64 47 1.0 4.0 0.00 0.00 0.00 83 1012.1
20260507214003 64 58 1.0 4.0 0.00 0.00 0.00 83 1011.9
20260507213717 64 58 1.0 2.0 0.00 0.00 0.00 83 1012.0
20260507213003 64 22 1.0 7.0 0.00 0.00 0.00 83 1012.1
20260507212713 64 22 1.0 7.0 0.00 0.00 0.00 83 1012.0
20260507212003 64 26 1.0 3.0 0.00 0.00 0.00 83 1011.9